Regional Weather Roundup
Issued by NWS

Home | Current Version | Previous Version | Graphics & Text | Print | Product List | Glossary On
Versions: 1 2 3 4 5 6 7 8 9 10 11 12 13 14 15 16 17 18 19 20 21 22 23 24 25 26 27
000
ASUS45 KBOI 261010
RWRID

IDAHO REGIONAL WEATHER ROUNDUP
NATIONAL WEATHER SERVICE BOISE ID
400 AM MDT WED JUL 26 2017

NOTE: "FAIR" INDICATES FEW OR NO CLOUDS BELOW 12000 FEET
WITH NO SIGNIFICANT WEATHER AND/OR OBSTRUCTIONS TO VISIBILITY

IDZ012-014-261100-
SOUTHWEST IDAHO


CITY           SKY/WX    TMP DP  RH WIND       PRES   REMARKS
BOISE          MOCLDY    79  51  37 SE7       30.04R
CALDWELL       MOCLDY    68  55  63 E7        30.02R
$$

IDZ016-017-261100-
SOUTHCENTRAL IDAHO


CITY           SKY/WX    TMP DP  RH WIND       PRES   REMARKS
BURLEY         LGT RAIN  65  58  78 CALM      30.13R
JEROME         CLOUDY    66  59  78 N5        30.14R
TWIN FALLS     MOCLDY    67  54  63 S12       30.12R
$$

IDZ019>023-261100-
SOUTHEAST IDAHO


CITY           SKY/WX    TMP DP  RH WIND       PRES   REMARKS
IDAHO FALLS    MOCLDY    58  55  90 N5        30.17R
POCATELLO      PTCLDY    62  56  80 S6        30.15S
REXBURG        PTCLDY    57  53  86 NE5       30.18R
$$

IDZ006-010-011-018-031-032-261100-
CENTRAL IDAHO MOUNTAINS


CITY           SKY/WX    TMP DP  RH WIND       PRES   REMARKS
MCCALL         PTCLDY    56  43  61 CALM      30.14S
HAILEY         RAIN      59  55  88 NW15      30.27R
STANLEY          N/A     55  48  77 S3        30.30R
SALMON         NOT AVBL
CHALLIS        PTCLDY    56  54  93 CALM      30.23S
$$

IDZ002-004-006-007-026-261100-
NORTHERN IDAHO


CITY           SKY/WX    TMP DP  RH WIND       PRES   REMARKS
LEWISTON       CLEAR     70  39  32 VRB3      29.96R
LOWELL           N/A     58  48  69 NW3       30.04R
COEUR D`ALENE  CLEAR     55  43  63 NE5       30.03R
MULLAN PASS    PTCLDY    64  32  30 CALM      30.22S
$$




USA.gov is the U.S. government's official web portal to all federal, state and local government web resources and services.